ASTRA 1N

Last updated on Tue Sep 22 2026 00:03:12 GMT+0000 (Coordinated Universal Time)

1 37775U 11041A 26264.13650912 .00000116 00000+0 00000+0 0 9999 2 37775 0.0805 29.2280 0004844 121.5605 277.5818 1.00271012 45480
UTC large
Height (km)
Speed (km/s)
/
Latitude / Longitude
Inclination (degrees)
Orbital Period (minutes)
Azimuth
Elevation
Range (km)
Doppler Factor

Next 0 passes for location: London (51.5072 / 0.1276)

No passes found over London.
ASTRA 1N